Temp
19 15 16 17 17 17 16 15 14 13 14 11 10 9 9 11 10 9 9 8 8 8 8 9 8 8 8 8 7 7 7 7 7 7 7 8 8 8 7 7 7 7 6 5
15 15 17 17 16 15 15 14 14 13 12 11 10 9 10 10 10 10 9 9 9 10 10 9 9 8 7 8 8 8 8 8 8 7 7 7 7 7 7 7 7 6 6 5
14 16 17 16 14 14 15 14 14 14 12 12 12 9 9 9 11 11 11 11 10 10 10 10 10 9 9 9 9 9 9 8 8 7 7 7 7 7 6 6 6 6 6 6
14 16 15 14 15 14 13 15 15 15 12 11 12 9 8 8 9 11 11 10 11 11 10 10 10 10 10 9 9 9 8 8 8 8 7 7 6 6 6 6 5 5 5 5
15 14 13 13 14 15 15 15 14 15 13 10 10 8 7 9 9 11 11 11 10 10 10 11 11 10 9 9 9 9 8 8 7 7 6 6 6 5 5 5 5 4 4 3
14 15 14 14 14 15 14 13 12 11 11 8 8 8 6 9 9 11 11 11 12 11 11 11 10 10 9 9 9 8 8 7 7 6 6 5 5 5 4 4 4 4 4 3
14 13 15 15 13 13 12 10 7 9 7 9 8 8 8 10 11 11 11 11 11 10 10 10 10 10 9 9 8 8 7 7 6 6 5 5 4 4 3 3 2 2 1 1
11 12 13 15 14 13 13 10 6 9 8 7 10 7 7 9 11 11 11 10 11 11 10 10 10 9 9 8 8 7 7 6 6 5 4 4 3 2 2 1 0 -0 -0 -0
8 12 15 13 12 12 12 9 11 9 8 7 8 7 8 10 11 11 11 11 11 11 10 10 9 9 8 8 7 6 6 5 5 4 3 2 1 1 0 -1 -2 -3 -3 -3
10 10 14 14 12 11 10 10 9 6 3 7 7 7 5 9 10 10 10 11 11 10 10 10 9 8 8 7 7 6 5 4 4 3 2 1 -0 -2 -2 -3 -4 -5 -5 -5
12 8 11 11 9 8 7 6 6 7 5 2 4 4 7 9 9 10 11 11 10 10 10 9 8 8 7 7 6 5 4 3 2 1 0 -1 -2 -3 -4 -4 -4 -5 -5 -5
10 8 7 9 9 10 8 6 5 2 7 6 2 3 8 9 11 11 11 10 10 10 9 9 8 8 7 6 5 4 4 2 1 0 -2 -2 -2 -3 -3 -3 -4 -4 -4 -5
9 8 7 8 9 9 8 8 5 4 1 1 1 4 9 11 10 11 10 10 10 9 9 8 8 7 6 6 5 4 3 1 1 -1 -2 -2 -2 -2 -3 -4 -5 -5 -5 -5
9 7 7 6 7 7 7 8 8 6 3 3 2 7 11 9 9 10 10 10 9 9 9 8 8 7 6 5 4 3 2 1 0 -2 -2 -2 -2 -4 -4 -5 -5 -5 -5 -5
8 6 7 7 7 6 6 6 7 7 7 6 7 9 10 9 9 9 10 9 9 9 8 8 7 6 6 5 4 2 1 0 -1 -2 -2 -3 -4 -4 -4 -5 -5 -5 -6 -6
10 7 7 6 7 7 4 5 7 6 7 8 8 8 10 10 10 10 9 9 9 9 8 8 7 6 5 4 3 2 1 0 -2 -2 -4 -4 -5 -5 -5 -5 -5 -5 -6 -6
8 6 7 7 6 8 6 5 5 6 5 6 6 7 8 9 10 10 9 9 9 8 8 7 6 6 4 3 2 1 0 -1 -2 -3 -4 -5 -5 -5 -5 -5 -5 -6 -6 -6
7 6 6 6 6 4 5 5 5 5 5 6 7 7 8 9 10 10 10 9 9 8 7 7 6 5 4 3 2 1 0 -1 -2 -3 -4 -5 -6 -5 -5 -5 -6 -6 -6 -6
6 5 6 7 5 5 7 6 5 6 6 7 6 8 9 9 10 10 10 9 9 8 7 7 6 5 4 3 1 0 -0 -1 -2 -3 -4 -5 -6 -5 -5 -6 -6 -6 -6 -6
5 5 5 5 5 6 6 6 5 6 6 8 8 7 9 9 6 7 9 9 8 7 7 6 5 5 4 3 1 1 -1 -1 -2 -3 -4 -5 -5 -5 -5 -6 -6 -6 -6 -6
3 4 4 1 5 5 6 6 6 6 5 8 8 8 8 8 9 9 9 9 8 7 7 6 5 4 4 3 1 1 0 -1 -1 -3 -4 -5 -5 -5 -5 -6 -6 -6 -6 -6
3 4 3 4 4 4 6 7 7 7 8 8 8 9 8 10 10 9 9 8 7 7 6 5 5 4 4 3 2 1 1 -1 -1 -2 -4 -5 -6 -5 -5 -5 -6 -6 -6 -6
4 3 4 5 5 5 6 7 7 7 8 9 8 10 10 10 10 9 8 8 7 6 6 5 5 4 4 3 2 1 1 -0 -1 -2 -3 -4 -5 -6 -6 -5 -6 -6 -6 -6
3 2 4 4 5 6 7 8 8 8 8 8 9 10 10 10 10 9 8 8 7 6 6 5 5 5 4 3 2 2 1 0 -1 -1 -2 -3 -4 -5 -6 -6 -6 -6 -6 -6
2 2 3 4 6 7 7 7 8 9 9 10 10 11 11 10 9 8 8 7 7 6 6 5 5 5 4 3 2 2 1 0 -0 -1 -2 -3 -4 -4 -5 -6 -6 -5 -5 -5
2 2 3 5 5 4 7 8 8 10 11 11 10 10 10 9 9 8 7 7 6 6 5 5 5 5 4 4 3 2 1 0 0 -1 -1 -2 -3 -3 -4 -5 -4 -4 -4 -4
Height
1503 1514 1519 1512 1510 1512 1516 1522 1530 1532 1529 1535 1546 1545 1547 1544 1542 1544 1546 1544 1544 1543 1544 1543 1545 1544 1541 1541 1545 1543 1542 1541 1539 1537 1535 1534 1532 1530 1528 1527 1526 1525 1523 1523
1511 1520 1513 1511 1512 1514 1519 1527 1535 1535 1534 1538 1547 1551 1550 1551 1550 1548 1549 1549 1548 1547 1548 1547 1547 1547 1546 1545 1544 1543 1541 1538 1536 1533 1531 1528 1526 1524 1522 1521 1520 1520 1517 1516
1516 1519 1512 1513 1518 1520 1521 1528 1532 1534 1538 1540 1537 1555 1558 1555 1556 1553 1549 1547 1548 1549 1548 1548 1547 1546 1545 1544 1542 1539 1537 1535 1532 1529 1526 1524 1521 1518 1516 1515 1513 1512 1511 1509
1517 1517 1516 1519 1521 1522 1527 1519 1522 1528 1537 1551 1541 1567 1569 1565 1558 1554 1550 1549 1549 1549 1547 1547 1546 1543 1542 1540 1538 1535 1532 1530 1527 1525 1521 1517 1513 1510 1509 1506 1505 1504 1503 1501
1524 1522 1522 1523 1525 1519 1523 1518 1519 1522 1532 1544 1551 1563 1572 1561 1560 1555 1552 1551 1551 1550 1548 1546 1544 1543 1540 1537 1535 1532 1529 1526 1523 1519 1515 1511 1507 1503 1500 1498 1495 1494 1492 1491
1521 1520 1522 1524 1521 1520 1517 1519 1522 1526 1534 1562 1562 1560 1573 1563 1559 1554 1553 1552 1550 1548 1547 1545 1543 1541 1538 1535 1532 1528 1524 1521 1517 1512 1508 1504 1500 1496 1492 1490 1486 1484 1482 1480
1525 1527 1524 1523 1523 1520 1523 1531 1556 1553 1562 1562 1564 1563 1566 1558 1554 1552 1553 1553 1551 1550 1547 1545 1541 1538 1535 1531 1528 1524 1520 1515 1511 1507 1502 1498 1493 1488 1483 1480 1476 1475 1473 1471
1537 1541 1529 1524 1527 1529 1528 1534 1561 1554 1565 1570 1556 1570 1571 1558 1556 1555 1555 1554 1551 1548 1545 1542 1538 1535 1532 1528 1524 1520 1515 1510 1506 1501 1496 1491 1487 1482 1477 1473 1469 1465 1462 1460
1544 1539 1526 1528 1529 1529 1532 1542 1538 1549 1558 1569 1568 1572 1565 1558 1556 1556 1554 1551 1548 1545 1542 1539 1536 1533 1529 1525 1521 1516 1511 1506 1500 1495 1489 1484 1480 1474 1468 1463 1458 1454 1451 1448
1534 1542 1528 1530 1531 1534 1536 1542 1550 1562 1591 1571 1574 1575 1582 1563 1559 1557 1553 1549 1546 1544 1541 1538 1535 1531 1527 1523 1517 1512 1507 1500 1494 1488 1483 1477 1471 1465 1460 1455 1450 1447 1444 1441
1528 1540 1540 1535 1549 1550 1548 1552 1556 1559 1571 1600 1594 1587 1565 1561 1558 1555 1550 1547 1545 1543 1540 1537 1533 1529 1525 1519 1514 1508 1501 1495 1488 1483 1476 1471 1465 1459 1454 1450 1446 1443 1440 1437
1532 1540 1554 1554 1551 1548 1548 1556 1561 1578 1567 1569 1592 1592 1559 1557 1555 1551 1550 1548 1545 1543 1540 1536 1531 1527 1521 1515 1509 1502 1495 1489 1484 1476 1469 1464 1460 1456 1451 1446 1442 1439 1435 1431
1534 1542 1559 1559 1554 1550 1552 1554 1561 1566 1577 1590 1604 1588 1558 1555 1555 1553 1551 1549 1546 1543 1538 1534 1529 1524 1518 1512 1504 1498 1491 1486 1478 1470 1465 1461 1457 1451 1446 1441 1437 1433 1429 1426
1534 1545 1546 1560 1556 1559 1561 1557 1554 1558 1580 1582 1588 1569 1558 1558 1556 1553 1551 1549 1545 1542 1537 1532 1526 1521 1515 1508 1501 1494 1489 1482 1473 1467 1462 1457 1452 1447 1442 1438 1433 1429 1425 1421
1538 1556 1550 1557 1558 1560 1567 1567 1562 1562 1565 1574 1571 1564 1559 1557 1556 1554 1552 1548 1544 1540 1535 1530 1524 1519 1513 1506 1499 1492 1486 1478 1470 1465 1460 1455 1449 1444 1440 1435 1431 1426 1422 1417
1539 1555 1555 1564 1562 1561 1574 1572 1565 1567 1569 1566 1566 1567 1562 1560 1557 1554 1551 1547 1543 1538 1534 1529 1524 1518 1511 1504 1497 1490 1482 1474 1469 1464 1459 1453 1447 1443 1438 1433 1429 1424 1419 1414
1543 1551 1555 1562 1565 1559 1573 1582 1579 1578 1578 1577 1578 1574 1566 1561 1558 1555 1551 1547 1543 1539 1534 1529 1523 1517 1511 1503 1496 1489 1480 1473 1468 1464 1458 1451 1446 1442 1437 1432 1428 1424 1419 1414
1547 1551 1555 1562 1566 1588 1585 1581 1581 1579 1580 1577 1574 1569 1565 1562 1559 1555 1552 1547 1543 1539 1534 1529 1523 1518 1511 1504 1496 1488 1480 1473 1468 1464 1458 1451 1446 1442 1436 1432 1428 1424 1419 1415
1549 1555 1556 1559 1570 1582 1577 1580 1580 1579 1581 1577 1574 1569 1566 1562 1559 1555 1552 1548 1544 1540 1535 1530 1524 1518 1511 1503 1496 1487 1480 1475 1470 1464 1459 1452 1448 1442 1436 1431 1428 1424 1420 1417
1558 1557 1563 1568 1573 1579 1581 1580 1580 1578 1584 1578 1574 1571 1566 1562 1562 1556 1553 1549 1545 1540 1535 1530 1524 1519 1512 1504 1497 1488 1480 1476 1471 1465 1460 1454 1450 1444 1439 1433 1429 1425 1422 1418
1571 1568 1571 1584 1577 1582 1581 1580 1580 1584 1592 1577 1574 1570 1567 1564 1562 1557 1554 1550 1545 1541 1536 1531 1525 1519 1513 1506 1498 1489 1482 1477 1472 1467 1462 1457 1451 1446 1441 1436 1431 1428 1425 1422
1577 1577 1580 1576 1583 1590 1581 1580 1582 1582 1579 1576 1572 1569 1566 1563 1560 1558 1554 1550 1546 1541 1536 1531 1526 1520 1514 1508 1500 1491 1483 1478 1474 1469 1464 1459 1453 1449 1444 1438 1434 1430 1428 1425
1578 1583 1578 1577 1581 1581 1580 1581 1580 1579 1577 1573 1571 1568 1565 1563 1560 1558 1555 1551 1547 1543 1538 1533 1528 1522 1516 1510 1503 1494 1486 1479 1475 1471 1467 1462 1458 1452 1448 1443 1438 1435 1432 1429
1581 1580 1578 1580 1583 1580 1580 1579 1578 1576 1574 1572 1569 1567 1565 1563 1561 1558 1555 1552 1548 1544 1539 1534 1529 1523 1517 1512 1506 1499 1489 1482 1477 1474 1470 1467 1463 1457 1453 1448 1444 1440 1437 1435
1585 1582 1582 1583 1582 1581 1579 1579 1577 1574 1571 1569 1568 1566 1565 1563 1562 1559 1556 1553 1550 1546 1541 1536 1531 1526 1520 1515 1510 1503 1495 1486 1480 1476 1474 1471 1468 1465 1460 1455 1452 1448 1445 1441
1586 1586 1586 1586 1586 1585 1580 1575 1571 1569 1568 1568 1568 1567 1566 1564 1563 1561 1558 1555 1551 1547 1544 1539 1534 1529 1524 1518 1513 1507 1501 1493 1485 1480 1477 1475 1472 1470 1467 1463 1459 1456 1452 1450
Wind_Speed
5 7 3 4 5 6 7 9 13 7 6 17 14 16 10 18 26 22 24 25 25 24 20 19 16 16 16 14 8 8 8 6 9 17 21 24 26 25 23 24 25 26 27 18
6 6 6 9 8 9 8 9 6 12 17 17 16 17 11 17 8 19 17 15 13 11 6 8 7 3 4 6 10 15 17 17 16 20 20 21 21 23 26 27 27 29 29 31
7 3 12 7 9 11 5 7 5 4 10 12 12 9 14 14 8 13 14 13 10 8 7 7 5 3 4 6 7 8 13 14 15 14 17 22 24 28 30 30 31 32 32 35
8 7 8 7 5 5 3 0 4 4 4 3 1 4 6 10 11 6 10 7 6 6 5 7 6 5 8 8 9 12 13 15 18 24 26 28 26 26 28 29 30 30 30 31
2 5 7 7 5 4 3 4 4 4 4 5 10 6 5 3 6 3 5 6 4 1 4 9 8 9 6 10 11 15 18 22 24 27 27 29 31 32 32 33 34 33 30 28
5 8 5 2 4 3 5 5 6 5 4 4 8 3 3 3 6 4 2 3 1 3 5 5 5 9 12 14 18 20 21 23 26 27 26 27 29 30 32 32 34 35 36 35
4 4 1 4 6 7 7 5 3 5 5 2 3 7 1 7 3 7 5 4 6 8 9 8 12 14 13 16 18 19 22 24 23 23 23 23 26 29 28 28 28 26 27 30
3 2 3 5 4 2 3 4 4 3 3 2 4 2 2 5 8 15 7 3 10 14 13 13 14 13 16 18 18 22 22 25 27 28 26 25 27 28 27 28 31 33 34 34
4 0 1 8 8 4 4 5 2 5 4 4 2 3 8 5 7 1 4 9 9 12 12 10 11 15 17 19 23 24 28 28 29 28 29 27 28 36 35 35 27 29 30 30
5 4 1 3 7 11 6 3 3 4 3 3 2 2 3 4 2 3 7 11 14 11 8 11 14 17 20 24 24 25 25 26 27 25 25 30 35 29 32 26 21 19 17 18
2 3 3 6 6 3 5 3 5 4 3 4 3 4 5 5 5 3 9 13 11 7 10 14 18 21 23 24 23 26 26 26 20 25 33 30 29 24 17 17 17 18 18 17
3 4 5 4 3 3 4 4 3 4 2 3 4 4 4 5 8 8 11 7 9 12 15 18 21 23 25 24 26 24 28 19 27 41 26 19 20 21 20 19 19 18 20 17
2 3 4 5 4 4 5 3 4 4 3 0 4 4 3 5 7 10 8 10 14 18 21 22 26 25 23 25 26 30 21 26 39 25 16 18 20 21 19 17 17 16 17 17
3 5 3 4 5 2 4 6 2 4 4 1 3 2 2 3 3 9 12 16 19 20 21 22 26 22 23 29 31 23 24 36 35 18 15 19 20 17 18 17 16 14 16 17
4 5 15 13 14 14 10 7 11 7 5 6 4 2 2 4 3 8 14 18 19 21 21 24 24 21 27 30 32 22 31 37 22 17 18 19 19 15 17 14 14 15 16 16
3 5 11 6 11 14 8 13 13 12 10 6 8 5 11 4 8 14 12 15 20 22 20 24 21 23 29 32 29 26 34 33 18 18 20 21 18 17 16 14 15 16 15 15
3 5 4 4 8 6 8 6 6 5 6 3 6 6 15 5 8 7 10 16 21 20 21 21 20 25 29 33 26 31 36 22 18 20 22 22 17 17 15 14 15 15 14 13
4 3 2 5 4 4 4 3 3 2 3 5 7 9 16 3 11 8 12 18 18 18 21 20 23 26 31 32 29 31 27 22 22 20 22 20 18 18 17 14 15 15 14 14
9 3 3 3 5 4 1 1 1 3 5 9 9 14 16 20 14 9 15 17 16 19 19 21 21 25 31 33 33 34 25 24 21 21 22 20 18 19 18 13 13 15 14 14
11 8 4 1 4 3 1 3 2 3 4 5 12 16 15 18 6 6 15 16 17 18 21 22 22 26 32 33 36 34 24 21 20 20 21 21 18 18 20 14 11 12 13 15
4 3 4 3 3 4 3 2 2 1 3 11 17 23 16 7 12 11 12 15 18 20 22 21 22 27 30 32 36 35 25 20 18 18 18 23 19 19 17 16 13 11 13 13
3 2 2 2 4 3 1 3 1 1 7 14 18 19 16 15 16 8 14 16 19 21 23 22 23 26 27 30 36 34 29 19 15 18 20 21 22 18 19 17 13 13 14 14
3 1 2 2 2 1 2 2 1 7 13 11 16 15 12 13 8 10 16 16 19 20 22 22 24 25 26 28 34 37 31 20 15 15 20 22 23 23 19 20 22 18 16 16
2 6 2 1 4 2 2 3 5 8 15 17 16 11 9 9 7 13 15 17 19 20 23 22 24 26 25 27 32 37 33 26 16 15 17 21 23 24 25 23 25 25 23 20
3 5 3 3 3 3 7 6 13 13 11 11 7 8 5 7 10 12 14 17 17 15 21 23 24 25 24 26 29 34 38 30 24 16 15 20 20 22 24 24 26 26 27 22
5 1 1 1 3 4 11 22 22 11 4 6 8 10 12 12 10 13 15 16 17 17 20 22 23 24 24 26 28 31 35 37 28 22 16 16 21 19 20 20 23 21 21 20
Wind_Direction
27 67 30 340 21 67 73 83 69 88 95 62 60 52 27 61 77 80 86 87 88 92 101 112 115 107 130 132 119 149 179 247 296 306 298 293 289 285 274 276 273 273 263 264
50 53 329 71 50 59 60 84 75 103 95 92 75 45 17 31 63 98 103 95 91 91 95 127 170 153 199 228 255 273 282 283 291 282 288 287 289 290 285 285 284 282 276 277
102 309 58 63 43 35 8 101 104 108 73 120 94 43 12 347 16 91 100 91 75 59 45 42 21 339 304 315 303 295 309 306 308 303 296 291 288 284 279 280 279 276 278 283
82 20 61 50 47 31 27 302 126 154 125 147 334 119 14 332 322 51 69 75 58 31 18 4 337 316 308 308 287 276 284 291 294 291 293 291 287 286 282 281 279 276 272 270
111 52 51 47 324 325 258 307 265 210 158 91 10 87 288 278 348 25 75 80 95 335 323 325 315 310 278 295 300 305 304 303 304 303 300 295 290 289 290 289 287 284 283 282
70 86 53 326 299 8 310 14 46 52 100 60 345 107 287 298 173 227 189 171 354 325 316 336 302 309 311 310 311 310 305 304 308 309 307 300 297 293 291 290 287 283 282 283
47 20 18 17 15 7 22 57 18 20 36 111 202 60 193 311 344 181 207 4 3 17 5 349 336 327 317 316 316 315 316 316 314 309 303 294 288 284 281 280 280 280 281 284
116 2 14 318 52 267 6 92 131 156 146 155 31 112 259 293 341 72 89 60 2 346 338 327 321 320 326 326 325 322 319 318 318 313 306 303 299 294 292 290 285 281 281 277
131 46 355 68 65 43 331 35 94 98 56 83 60 353 319 346 76 51 358 351 327 308 316 316 326 332 334 332 333 330 327 326 319 313 310 308 304 310 306 301 294 290 286 282
197 118 137 59 28 35 71 354 61 22 101 96 136 45 227 337 318 324 343 321 305 307 329 334 343 345 341 339 335 330 328 324 316 311 308 313 317 310 312 307 306 308 299 291
99 100 349 54 20 326 3 38 60 103 116 152 133 274 218 257 252 271 286 300 343 354 347 350 352 350 344 340 335 334 332 320 309 320 325 317 314 318 324 327 317 310 303 297
6 113 61 86 131 63 74 112 100 111 159 67 119 277 247 251 236 263 319 16 12 5 359 358 352 348 346 344 339 336 328 320 331 329 324 332 339 331 327 319 313 307 302 300
341 84 119 159 231 20 38 24 113 108 80 346 110 256 307 197 26 53 37 17 8 2 354 351 351 350 350 344 343 339 334 336 339 339 349 343 339 335 333 329 327 323 314 309
78 31 147 158 112 140 15 355 56 116 73 201 168 184 244 64 45 35 17 8 1 353 352 347 354 355 348 349 346 345 340 343 342 346 341 342 339 339 345 339 331 330 321 318
89 82 90 93 95 83 61 36 41 52 137 110 223 36 328 170 79 37 18 0 354 348 349 353 357 353 350 352 353 345 344 342 346 345 349 348 348 349 349 345 344 335 332 332
80 118 102 82 92 91 72 28 41 34 7 27 50 20 6 41 38 22 2 356 355 353 353 358 360 355 356 354 355 348 345 347 354 0 356 354 358 354 349 346 348 347 349 347
78 143 139 119 155 74 46 351 26 94 31 339 35 308 332 356 24 344 355 2 357 5 4 5 2 358 0 357 354 349 346 360 9 8 1 5 9 360 1 2 360 0 357 6
98 106 72 141 126 64 238 228 246 98 45 15 332 339 356 340 2 2 12 6 11 12 11 8 1 1 359 1 358 350 359 15 15 9 9 9 12 13 2 5 6 10 6 18
64 89 85 122 80 92 301 78 85 89 359 355 329 338 353 349 356 18 19 20 20 18 12 5 2 2 359 8 4 357 11 19 14 9 11 13 15 16 9 14 18 20 19 19
44 70 89 85 92 122 225 97 136 6 43 330 316 317 337 344 5 305 16 21 21 14 10 6 3 2 7 12 7 10 14 17 10 10 16 19 15 10 16 12 21 31 27 29
8 26 54 61 92 50 357 25 13 116 249 306 318 316 312 328 336 351 18 19 16 11 9 8 5 8 10 13 10 13 13 16 16 15 19 21 28 22 15 19 25 37 28 33
56 10 38 45 86 116 355 142 240 301 296 292 307 325 315 342 352 26 25 22 17 12 11 14 8 9 13 15 12 14 13 9 11 13 18 30 34 32 23 29 38 36 40 46
71 36 82 17 107 265 33 81 278 280 282 302 311 329 338 344 23 30 26 23 14 14 16 14 13 10 15 17 15 14 12 6 14 17 25 33 35 42 41 41 43 47 47 53
9 14 77 100 342 339 160 213 280 281 286 294 309 335 340 5 40 33 28 16 18 20 18 13 15 15 16 19 18 18 16 15 18 29 35 38 39 43 52 54 56 55 53 56
328 343 355 51 23 293 277 294 322 305 296 323 352 354 20 33 46 39 31 22 21 21 17 16 19 19 18 19 23 20 19 20 25 39 47 44 47 46 51 54 63 58 55 56
359 4 62 107 357 313 310 348 350 334 25 61 63 75 63 53 58 27 29 24 19 21 17 20 23 25 22 20 25 23 20 20 27 38 51 52 51 51 55 56 66 65 60 62